• En Estados Unidos
  • Lista de países
  • Para 7 días
  • Temperatura del agua
  • Mapa Satelital
  • El tiempo en el mapa
  • Informadores
  • user-avatar
    Iniciar sesión

    Tiempo cada hora Fier

    Hoy, 18 Enero, Jueves

    Tiempo Temperatura Precipitaciones Viento Presión Humedad
    00:00 +6°C° 0,3 mm 11 mps 752 mmHg 81%
    01:00 +5°C° 0,3 mm 12 mps 753 mmHg 81%
    02:00 +4°C° 0 mm 11 mps 754 mmHg 80%
    03:00 +3°C° 0 mm 11 mps 755 mmHg 80%
    04:00 +2°C° 0 mm 10 mps 756 mmHg 80%
    05:00 +2°C° 0 mm 10 mps 758 mmHg 77%
    06:00 +1°C° 0 mm 10 mps 759 mmHg 75%
    07:00 +1°C° 0 mm 9 mps 760 mmHg 73%
    08:00 +2°C° 0 mm 9 mps 761 mmHg 65%
    09:00 +3°C° 0 mm 9 mps 761 mmHg 56%
    10:00 +5°C° 0 mm 9 mps 762 mmHg 48%
    11:00 +6°C° 0 mm 9 mps 762 mmHg 46%
    12:00 +7°C° 0 mm 8 mps 762 mmHg 44%
    13:00 +9°C° 0 mm 8 mps 763 mmHg 42%
    14:00 +8°C° 0 mm 7 mps 763 mmHg 46%
    15:00 +8°C° 0 mm 5 mps 763 mmHg 51%
    16:00 +7°C° 0 mm 4 mps 763 mmHg 55%
    17:00 +7°C° 0 mm 3 mps 763 mmHg 56%
    18:00 +5°C° 0 mm 3 mps 763 mmHg 56%
    19:00 +5°C° 0 mm 2 mps 764 mmHg 57%
    20:00 +5°C° 0 mm 2 mps 764 mmHg 57%
    21:00 +4°C° 0 mm 3 mps 764 mmHg 58%
    22:00 +4°C° 0 mm 3 mps 764 mmHg 58%
    23:00 +4°C° 0 mm 3 mps 764 mmHg 60%

    Mañana, 19 Enero, Viernes

    Tiempo Temperatura Precipitaciones Viento Presión Humedad
    00:00 +4°C° 0 mm 4 mps 764 mmHg 62%
    01:00 +4°C° 0 mm 4 mps 764 mmHg 64%
    02:00 +3°C° 0 mm 5 mps 763 mmHg 65%
    03:00 +3°C° 0 mm 5 mps 763 mmHg 67%
    04:00 +3°C° 0 mm 5 mps 762 mmHg 68%
    05:00 +3°C° 0 mm 5 mps 762 mmHg 68%
    06:00 +3°C° 0 mm 5 mps 762 mmHg 68%
    07:00 +3°C° 0 mm 5 mps 762 mmHg 68%
    08:00 +6°C° 0 mm 5 mps 762 mmHg 67%
    09:00 +8°C° 0 mm 5 mps 762 mmHg 67%
    10:00 +10°C° 0 mm 5 mps 762 mmHg 66%
    11:00 +10°C° 0 mm 5 mps 761 mmHg 65%
    12:00 +12°C° 0 mm 5 mps 761 mmHg 65%
    13:00 +13°C° 0 mm 5 mps 760 mmHg 64%
    14:00 +12°C° 0 mm 5 mps 760 mmHg 68%
    15:00 +12°C° 0 mm 5 mps 760 mmHg 72%
    16:00 +10°C° 0 mm 6 mps 760 mmHg 76%
    17:00 +10°C° 0 mm 6 mps 760 mmHg 79%
    18:00 +9°C° 0 mm 6 mps 760 mmHg 81%
    19:00 +8°C° 0 mm 6 mps 760 mmHg 84%
    20:00 +8°C° 0 mm 6 mps 760 mmHg 85%
    21:00 +8°C° 0 mm 6 mps 760 mmHg 86%
    22:00 +8°C° 0 mm 6 mps 760 mmHg 87%
    23:00 +8°C° 0 mm 6 mps 759 mmHg 87%

    Pasado mañana, 20 Enero, Sábado

    Tiempo Temperatura Precipitaciones Viento Presión Humedad
    00:00 +8°C° 0 mm 6 mps 759 mmHg 87%
    01:00 +8°C° 0 mm 6 mps 759 mmHg 87%
    02:00 +8°C° 0,1 mm 6 mps 759 mmHg 87%
    03:00 +8°C° 0,1 mm 6 mps 758 mmHg 87%
    04:00 +8°C° 0,1 mm 6 mps 758 mmHg 87%
    05:00 +8°C° 0,1 mm 6 mps 758 mmHg 88%
    06:00 +8°C° 0,1 mm 6 mps 758 mmHg 88%
    07:00 +8°C° 0,1 mm 6 mps 758 mmHg 88%
    08:00 +9°C° 0,2 mm 6 mps 757 mmHg 87%
    09:00 +10°C° 0,2 mm 5 mps 757 mmHg 86%
    10:00 +12°C° 0,2 mm 5 mps 757 mmHg 85%
    11:00 +13°C° 0,4 mm 6 mps 757 mmHg 83%
    12:00 +13°C° 0,4 mm 6 mps 756 mmHg 81%
    13:00 +14°C° 0,4 mm 6 mps 756 mmHg 79%
    14:00 +13°C° 0,6 mm 6 mps 755 mmHg 81%
    15:00 +13°C° 0,6 mm 6 mps 755 mmHg 83%
    16:00 +11°C° 0,6 mm 6 mps 755 mmHg 84%
    17:00 +12°C° 0,7 mm 5 mps 755 mmHg 87%
    18:00 +10°C° 0,7 mm 5 mps 755 mmHg 89%
    19:00 +11°C° 0,7 mm 4 mps 756 mmHg 92%
    20:00 +10°C° 0,5 mm 3 mps 756 mmHg 92%
    21:00 +10°C° 0,5 mm 3 mps 756 mmHg 93%
    22:00 +10°C° 0,5 mm 2 mps 757 mmHg 93%
    23:00 +10°C° 0,1 mm 2 mps 757 mmHg 92%

    21 Enero, Domingo

    Tiempo Temperatura Precipitaciones Viento Presión Humedad
    00:00 +9°C° 0,1 mm 2 mps 757 mmHg 92%
    01:00 +9°C° 0,1 mm 2 mps 757 mmHg 91%
    02:00 +9°C° 0 mm 2 mps 757 mmHg 91%
    03:00 +9°C° 0 mm 2 mps 757 mmHg 90%
    04:00 +9°C° 0 mm 2 mps 756 mmHg 90%
    05:00 +9°C° 0 mm 2 mps 756 mmHg 89%
    06:00 +8°C° 0 mm 2 mps 756 mmHg 88%
    07:00 +8°C° 0 mm 2 mps 756 mmHg 86%
    08:00 +9°C° 0,1 mm 2 mps 756 mmHg 81%
    09:00 +10°C° 0,1 mm 2 mps 756 mmHg 75%
    10:00 +12°C° 0,1 mm 1 mps 755 mmHg 70%
    11:00 +13°C° 0,2 mm 2 mps 755 mmHg 67%
    12:00 +13°C° 0,2 mm 2 mps 755 mmHg 64%
    13:00 +13°C° 0,2 mm 2 mps 754 mmHg 61%
    14:00 +11°C° 0,5 mm 3 mps 754 mmHg 66%
    15:00 +10°C° 0,5 mm 5 mps 754 mmHg 71%
    16:00 +9°C° 0,5 mm 6 mps 754 mmHg 76%
    17:00 +8°C° 0,1 mm 6 mps 755 mmHg 78%
    18:00 +8°C° 0,1 mm 6 mps 755 mmHg 80%
    19:00 +7°C° 0,1 mm 6 mps 756 mmHg 82%
    20:00 +6°C° 0 mm 7 mps 756 mmHg 81%
    21:00 +5°C° 0 mm 7 mps 757 mmHg 81%
    22:00 +5°C° 0 mm 7 mps 757 mmHg 80%
    23:00 +4°C° 0 mm 7 mps 758 mmHg 78%

    22 Enero, Lunes

    Tiempo Temperatura Precipitaciones Viento Presión Humedad
    00:00 +3°C° 0 mm 6 mps 758 mmHg 76%
    01:00 +3°C° 0 mm 6 mps 759 mmHg 74%
    02:00 +2°C° 0 mm 6 mps 759 mmHg 73%
    03:00 +2°C° 0 mm 6 mps 760 mmHg 73%
    04:00 +1°C° 0 mm 5 mps 760 mmHg 72%
    05:00 +1°C° 0 mm 5 mps 761 mmHg 72%
    06:00 +1°C° 0 mm 5 mps 762 mmHg 71%
    07:00 +1°C° 0 mm 5 mps 762 mmHg 70%
    08:00 +2°C° 0 mm 5 mps 763 mmHg 65%
    09:00 +3°C° 0 mm 5 mps 763 mmHg 59%
    10:00 +6°C° 0 mm 5 mps 763 mmHg 53%
    11:00 +6°C° 0 mm 5 mps 763 mmHg 51%
    12:00 +7°C° 0 mm 5 mps 763 mmHg 49%
    13:00 +8°C° 0 mm 5 mps 763 mmHg 48%
    14:00 +8°C° 0 mm 4 mps 764 mmHg 51%
    15:00 +7°C° 0 mm 4 mps 764 mmHg 55%
    16:00 +7°C° 0 mm 4 mps 764 mmHg 58%
    17:00 +6°C° 0 mm 4 mps 765 mmHg 61%
    18:00 +5°C° 0 mm 4 mps 765 mmHg 63%
    19:00 +4°C° 0 mm 4 mps 766 mmHg 66%
    20:00 +4°C° 0 mm 4 mps 766 mmHg 67%
    21:00 +3°C° 0 mm 4 mps 767 mmHg 67%
    22:00 +3°C° 0 mm 4 mps 767 mmHg 68%
    23:00 +3°C° 0 mm 4 mps 767 mmHg 68%

    23 Enero, Martes

    Tiempo Temperatura Precipitaciones Viento Presión Humedad
    00:00 +3°C° 0 mm 4 mps 767 mmHg 67%
    01:00 +2°C° 0 mm 3 mps 767 mmHg 67%
    02:00 +2°C° 0 mm 3 mps 767 mmHg 66%
    03:00 +2°C° 0 mm 3 mps 768 mmHg 65%
    04:00 +2°C° 0 mm 3 mps 768 mmHg 64%
    05:00 +2°C° 0 mm 3 mps 768 mmHg 62%
    06:00 +2°C° 0 mm 3 mps 769 mmHg 60%
    07:00 +3°C° 0 mm 2 mps 769 mmHg 58%
    08:00 +5°C° 0 mm 2 mps 769 mmHg 52%
    09:00 +6°C° 0 mm 2 mps 770 mmHg 46%
    10:00 +8°C° 0 mm 2 mps 770 mmHg 40%
    11:00 +9°C° 0 mm 2 mps 770 mmHg 38%
    12:00 +10°C° 0 mm 2 mps 769 mmHg 35%
    13:00 +12°C° 0 mm 2 mps 769 mmHg 33%
    14:00 +10°C° 0 mm 2 mps 769 mmHg 38%
    15:00 +10°C° 0 mm 2 mps 770 mmHg 43%
    16:00 +9°C° 0 mm 2 mps 770 mmHg 48%
    17:00 +8°C° 0 mm 3 mps 770 mmHg 49%
    18:00 +7°C° 0 mm 3 mps 770 mmHg 50%
    19:00 +5°C° 0 mm 3 mps 771 mmHg 52%
    20:00 +5°C° 0 mm 3 mps 771 mmHg 51%
    21:00 +5°C° 0 mm 3 mps 771 mmHg 50%
    22:00 +4°C° 0 mm 3 mps 771 mmHg 49%
    23:00 +4°C° 0 mm 3 mps 771 mmHg 48%
    Mostrar más